• In Germany
  • List of Countries
  • For 7 days
  • Water Temperature
  • Satellite Maps
  • Weather Map
  • Weather Widgets
  • user-avatar
    Login

    Hourly Weather Andora

    Today, 18 November, Saturday

    Time Temperature Precipitation Wind Pressure Humidity
    00:00 +1°C° 0 mm 2 mps 625 mmHg 69%
    01:00 +1°C° 0 mm 2 mps 625 mmHg 70%
    02:00 -1°C° 0 mm 2 mps 625 mmHg 71%
    03:00 -1°C° 0 mm 2 mps 625 mmHg 72%
    04:00 -1°C° 0 mm 2 mps 624 mmHg 72%
    05:00 -1°C° 0 mm 2 mps 624 mmHg 72%
    06:00 -1°C° 0 mm 2 mps 624 mmHg 73%
    07:00 +1°C° 0 mm 2 mps 625 mmHg 67%
    08:00 +3°C° 0 mm 2 mps 626 mmHg 60%
    09:00 +4°C° 0 mm 2 mps 627 mmHg 54%
    10:00 +5°C° 0 mm 2 mps 627 mmHg 50%
    11:00 +7°C° 0 mm 2 mps 628 mmHg 46%
    12:00 +8°C° 0 mm 2 mps 628 mmHg 42%
    13:00 +7°C° 0 mm 2 mps 628 mmHg 44%
    14:00 +7°C° 0 mm 2 mps 627 mmHg 47%
    15:00 +6°C° 0 mm 2 mps 627 mmHg 49%
    16:00 +4°C° 0 mm 2 mps 626 mmHg 57%
    17:00 +2°C° 0 mm 2 mps 626 mmHg 65%
    18:00 -1°C° 0 mm 2 mps 625 mmHg 73%
    19:00 -1°C° 0 mm 2 mps 625 mmHg 68%
    20:00 -1°C° 0 mm 2 mps 625 mmHg 63%
    21:00 -2°C° 0 mm 2 mps 625 mmHg 58%
    22:00 -2°C° 0 mm 2 mps 625 mmHg 55%
    23:00 -2°C° 0 mm 2 mps 625 mmHg 51%

    Tomorrow, 19 November, Sunday

    Time Temperature Precipitation Wind Pressure Humidity
    00:00 -2°C° 0 mm 2 mps 625 mmHg 48%
    01:00 -2°C° 0 mm 2 mps 625 mmHg 46%
    02:00 -2°C° 0 mm 2 mps 625 mmHg 43%
    03:00 -2°C° 0 mm 2 mps 625 mmHg 41%
    04:00 -2°C° 0 mm 2 mps 625 mmHg 39%
    05:00 -2°C° 0 mm 2 mps 625 mmHg 38%
    06:00 -2°C° 0 mm 2 mps 625 mmHg 37%
    07:00 +1°C° 0 mm 2 mps 626 mmHg 35%
    08:00 +3°C° 0 mm 2 mps 627 mmHg 33%
    09:00 +4°C° 0 mm 2 mps 628 mmHg 31%
    10:00 +6°C° 0 mm 2 mps 628 mmHg 32%
    11:00 +7°C° 0 mm 2 mps 628 mmHg 32%
    12:00 +8°C° 0 mm 2 mps 629 mmHg 33%
    13:00 +8°C° 0 mm 2 mps 628 mmHg 37%
    14:00 +7°C° 0 mm 2 mps 628 mmHg 41%
    15:00 +7°C° 0 mm 2 mps 627 mmHg 45%
    16:00 +5°C° 0 mm 2 mps 627 mmHg 51%
    17:00 +3°C° 0 mm 2 mps 626 mmHg 58%
    18:00 +1°C° 0 mm 2 mps 626 mmHg 65%
    19:00 +1°C° 0 mm 2 mps 626 mmHg 66%
    20:00 +1°C° 0 mm 2 mps 626 mmHg 67%
    21:00 -1°C° 0 mm 2 mps 626 mmHg 68%
    22:00 -1°C° 0 mm 2 mps 626 mmHg 67%
    23:00 +1°C° 0 mm 2 mps 626 mmHg 67%

    Day after tomorrow, 20 November, Monday

    Time Temperature Precipitation Wind Pressure Humidity
    00:00 +1°C° 0 mm 2 mps 626 mmHg 67%
    01:00 +1°C° 0 mm 2 mps 626 mmHg 67%
    02:00 +1°C° 0 mm 2 mps 626 mmHg 66%
    03:00 +1°C° 0 mm 2 mps 626 mmHg 65%
    04:00 +1°C° 0 mm 2 mps 626 mmHg 65%
    05:00 +1°C° 0 mm 2 mps 626 mmHg 65%
    06:00 +1°C° 0 mm 2 mps 626 mmHg 65%
    07:00 +3°C° 0 mm 1 mps 627 mmHg 60%
    08:00 +5°C° 0 mm 1 mps 628 mmHg 55%
    09:00 +7°C° 0 mm 1 mps 629 mmHg 51%
    10:00 +8°C° 0 mm 1 mps 629 mmHg 47%
    11:00 +10°C° 0 mm 1 mps 629 mmHg 43%
    12:00 +11°C° 0 mm 1 mps 629 mmHg 40%
    13:00 +11°C° 0 mm 1 mps 629 mmHg 43%
    14:00 +10°C° 0 mm 1 mps 629 mmHg 47%
    15:00 +10°C° 0 mm 1 mps 628 mmHg 51%
    16:00 +8°C° 0 mm 1 mps 627 mmHg 57%
    17:00 +5°C° 0 mm 1 mps 627 mmHg 63%
    18:00 +3°C° 0 mm 1 mps 626 mmHg 70%
    19:00 +3°C° 0 mm 1 mps 626 mmHg 69%
    20:00 +3°C° 0 mm 1 mps 626 mmHg 68%
    21:00 +3°C° 0 mm 1 mps 626 mmHg 67%
    22:00 +3°C° 0 mm 1 mps 626 mmHg 65%
    23:00 +3°C° 0 mm 1 mps 626 mmHg 63%

    21 November, Tuesday

    Time Temperature Precipitation Wind Pressure Humidity
    00:00 +3°C° 0 mm 1 mps 626 mmHg 61%
    01:00 +3°C° 0 mm 1 mps 626 mmHg 58%
    02:00 +3°C° 0 mm 1 mps 625 mmHg 56%
    03:00 +3°C° 0 mm 1 mps 625 mmHg 53%
    04:00 +3°C° 0 mm 1 mps 625 mmHg 50%
    05:00 +3°C° 0 mm 1 mps 625 mmHg 47%
    06:00 +2°C° 0 mm 1 mps 625 mmHg 45%
    07:00 +4°C° 0 mm 1 mps 626 mmHg 41%
    08:00 +6°C° 0 mm 1 mps 626 mmHg 38%
    09:00 +7°C° 0 mm 0 mps 627 mmHg 35%
    10:00 +9°C° 0 mm 1 mps 628 mmHg 33%
    11:00 +11°C° 0 mm 1 mps 628 mmHg 30%
    12:00 +12°C° 0 mm 1 mps 628 mmHg 28%
    13:00 +12°C° 0 mm 1 mps 628 mmHg 33%
    14:00 +11°C° 0 mm 1 mps 627 mmHg 37%
    15:00 +10°C° 0 mm 1 mps 627 mmHg 42%
    16:00 +8°C° 0 mm 1 mps 626 mmHg 47%
    17:00 +6°C° 0 mm 1 mps 625 mmHg 53%
    18:00 +4°C° 0 mm 1 mps 624 mmHg 58%
    19:00 +4°C° 0 mm 1 mps 624 mmHg 58%
    20:00 +4°C° 0 mm 1 mps 624 mmHg 58%
    21:00 +3°C° 0 mm 1 mps 624 mmHg 57%
    22:00 +3°C° 0 mm 1 mps 624 mmHg 57%
    23:00 +3°C° 0 mm 1 mps 624 mmHg 56%

    22 November, Wednesday

    Time Temperature Precipitation Wind Pressure Humidity
    00:00 +3°C° 0 mm 1 mps 624 mmHg 55%
    01:00 +3°C° 0 mm 1 mps 623 mmHg 54%
    02:00 +2°C° 0 mm 1 mps 623 mmHg 52%
    03:00 +2°C° 0 mm 1 mps 623 mmHg 50%
    04:00 +2°C° 0 mm 1 mps 623 mmHg 49%
    05:00 +2°C° 0 mm 1 mps 622 mmHg 48%
    06:00 +2°C° 0 mm 1 mps 622 mmHg 46%
    07:00 +4°C° 0 mm 1 mps 623 mmHg 44%
    08:00 +4°C° 0 mm 2 mps 624 mmHg 42%
    09:00 +6°C° 0 mm 2 mps 624 mmHg 40%
    10:00 +7°C° 0 mm 2 mps 624 mmHg 38%
    11:00 +9°C° 0 mm 2 mps 625 mmHg 37%
    12:00 +10°C° 0 mm 3 mps 625 mmHg 36%
    13:00 +9°C° 0 mm 3 mps 624 mmHg 40%
    14:00 +9°C° 0 mm 3 mps 624 mmHg 45%
    15:00 +8°C° 0 mm 3 mps 623 mmHg 49%
    16:00 +6°C° 0 mm 2 mps 622 mmHg 58%
    17:00 +4°C° 0 mm 2 mps 622 mmHg 67%
    18:00 +2°C° 0 mm 2 mps 621 mmHg 77%
    19:00 +2°C° 0 mm 2 mps 621 mmHg 78%
    20:00 +2°C° 0 mm 2 mps 621 mmHg 79%
    21:00 +2°C° 0 mm 2 mps 621 mmHg 80%
    22:00 +2°C° 0 mm 2 mps 621 mmHg 78%
    23:00 +2°C° 0 mm 2 mps 621 mmHg 77%

    23 November, Thursday

    Time Temperature Precipitation Wind Pressure Humidity
    00:00 +2°C° 0 mm 2 mps 621 mmHg 76%
    01:00 +2°C° 0 mm 2 mps 621 mmHg 75%
    02:00 +2°C° 0 mm 2 mps 620 mmHg 74%
    03:00 +2°C° 0 mm 2 mps 620 mmHg 73%
    04:00 +2°C° 0 mm 2 mps 621 mmHg 71%
    05:00 +2°C° 0 mm 2 mps 621 mmHg 68%
    06:00 +2°C° 0 mm 2 mps 621 mmHg 66%
    07:00 +3°C° 0 mm 2 mps 622 mmHg 63%
    08:00 +4°C° 0 mm 2 mps 622 mmHg 60%
    09:00 +5°C° 0 mm 3 mps 623 mmHg 56%
    10:00 +7°C° 0 mm 3 mps 624 mmHg 52%
    11:00 +9°C° 0 mm 3 mps 624 mmHg 47%
    12:00 +10°C° 0 mm 3 mps 625 mmHg 43%
    13:00 +10°C° 0 mm 3 mps 624 mmHg 45%
    14:00 +9°C° 0 mm 3 mps 624 mmHg 48%
    15:00 +9°C° 0 mm 3 mps 624 mmHg 51%
    16:00 +7°C° 0 mm 2 mps 623 mmHg 55%
    17:00 +6°C° 0 mm 2 mps 623 mmHg 60%
    18:00 +4°C° 0 mm 2 mps 623 mmHg 65%
    19:00 +4°C° 0 mm 2 mps 623 mmHg 67%
    20:00 +3°C° 0 mm 2 mps 623 mmHg 68%
    21:00 +3°C° 0 mm 2 mps 623 mmHg 70%
    22:00 +3°C° 0 mm 2 mps 623 mmHg 70%
    23:00 +3°C° 0 mm 2 mps 623 mmHg 70%
    Show more